This demonstration page uses our WeatherBlox Daily Observations layout. Learn more.

Left ArrowRight Arrow

36.17497, -115.13722

Hourly Observations for March 15, 2019

Temp ( °F °C ) Dew Point ( °F °C ) Humidity (%) Winds ( mph kmh ) Pressure ( in mb ) Visibility ( mi km ) Precip ( " mm )
12:53 am 00:53 Clear 48 8.9 25 -3.9 41 41 Calm 30.35 1028 10 16 0.00 0.00
1:53 am 01:53 Clear 44 6.7 26 -3.3 49 49 N 6 9 30.36 1028 10 16 0.00 0.00
2:53 am 02:53 Clear 45 7.2 25 -3.9 46 46 N 7 11 30.35 1028 10 16 0.00 0.00
3:53 am 03:53 Clear 47 8.3 22 -5.6 37 37 NNW 12 19 30.34 1027 10 16 0.00 0.00
4:53 am 04:53 Clear 46 7.8 21 -6.1 37 37 N 10 17 30.34 1028 10 16 0.00 0.00
5:53 am 05:53 Clear 46 7.8 21 -6.1 37 37 N 9 15 30.35 1028 10 16 0.00 0.00
6:53 am 06:53 Sunny 46 7.8 21 -6.1 37 37 N 10 17 30.36 1028 10 16 0.00 0.00
7:53 am 07:53 Sunny 47 8.3 21 -6.1 36 36 N 9 15 30.37 1028 10 16 0.00 0.00
8:53 am 08:53 Sunny 50 10 21 -6.1 32 32 N 10 17 30.37 1028 10 16 0.00 0.00
9:53 am 09:53 Sunny 54 12.2 20 -6.7 26 26 VRB 6 9 30.36 1028 10 16 0.00 0.00
10:53 am 10:53 Sunny 56 13.3 20 -6.7 24 24 NNW 8 13 30.34 1027 10 16 0.00 0.00
11:53 am 11:53 Sunny 57 13.9 20 -6.7 24 24 N 8 13 30.30 1026 10 16 0.00 0.00
12:53 pm 12:53 Sunny 60 15.6 18 -7.8 19 19 E 9 15 30.27 1025 10 16 0.00 0.00
1:53 pm 13:53 Sunny 62 16.7 17 -8.3 17 17 E 18 30 30.23 1024 10 16 0.00 0.00
2:53 pm 14:53 Sunny 64 17.8 15 -9.4 15 15 E 18 30 30.19 1022 10 16 0.00 0.00
3:53 pm 15:53 Sunny 65 18.3 13 -10.6 13 13 E 15 24 30.17 1022 10 16 0.00 0.00
4:08 pm 16:08 Sunny 64 17.8 12 -11.1 13 13 ENE 13 20 30.07 1018 10 16 0.00 0.00
4:53 pm 16:53 Sunny 65 18.3 10 -12.2 11 11 E 17 28 30.15 1021 10 16 0.00 0.00
5:53 pm 17:53 Sunny 64 17.8 10 -12.2 12 12 ENE 10 17 30.14 1021 10 16 0.00 0.00
6:53 pm 18:53 Clear 62 16.7 12 -11.1 14 14 ENE 9 15 30.16 1021 10 16 0.00 0.00
7:53 pm 19:53 Clear 60 15.6 14 -10 16 16 NNE 3 6 30.16 1022 10 16 0.00 0.00
8:53 pm 20:53 Clear 57 13.9 17 -8.3 21 21 WNW 5 7 30.18 1022 10 16 0.00 0.00
9:53 pm 21:53 Clear 56 13.3 18 -7.8 22 22 NW 3 6 30.19 1023 10 16 0.00 0.00
10:53 pm 22:53 Clear 59 15 18 -7.8 20 20 N 10 17 30.19 1023 10 16 0.00 0.00
11:53 pm 23:53 Clear 58 14.4 19 -7.2 22 22 N 8 13 30.19 1022 10 16 0.00 0.00

Powered by AerisWeather